Skip Page Navigation
NASA JPL Caltech
NASA Logo - Jet Propulsion Laboratory + View the NASA Portal
+ Center for Near-Earth Object Studies
JPL Home Earth Solar System Stars & Galaxies Technology
JPL Solar System Dynamics
BODIES ORBITS EPHEMERIDES TOOLS PHYSICAL DATA DISCOVERY FAQ SITE MAP
JPL Small-Body Database Browser
Search: [ help ]  
11325 Slavicky (1995 SG)
Classification: Main-belt Asteroid          SPK-ID: 2011325
Ephemeris | Orbit Diagram | Orbital Elements | Mission Design | Physical Parameters | Discovery Circumstances | Close-Approach Data ]

[ hide orbit diagram ]

For accurate long-term ephemerides, please instead use our Horizons system.This orbit viewer was implemented using two-body methods, and hence should not be used for determining accurate long-term trajectories (over several years or decades) or planetary encounter circumstances.


Orbital Elements at Epoch 2459200.5 (2020-Dec-17.0) TDB
Reference: JPL 28 (heliocentric ecliptic J2000)
 Element Value Uncertainty (1-sigma)   Units 
e .1349068218654853 2.4081e-08  
a 2.541540445235275 7.7835e-09 au
q 2.198669301125993 6.1068e-08 au
i 1.355022842655415 2.89e-06 deg
node 236.0891866374251 0.0001936 deg
peri 167.5572074690347 0.00019446 deg
M 49.92950565375551 1.8924e-05 deg
tp 2458995.242644018685
(2020-May-25.74264402)
7.7707e-05 TDB
period 1479.939510430855
4.05
6.7985e-06
1.861e-08
d
yr
n .2432531853245767 1.1174e-09 deg/d
Q 2.884411589344556 8.8335e-09 au
  Orbit Determination Parameters
   # obs. used (total)      1411  
   data-arc span      10698 days (29.29 yr)  
   first obs. used      1991-10-08  
   last obs. used      2021-01-21  
   planetary ephem.      DE431  
   SB-pert. ephem.      SB431-N16  
   condition code      0  
   norm. resid. RMS      .49708  
   source      ORB  
   producer      Otto Matic  
   solution date      2021-Feb-24 01:59:57  

Additional Information
 Earth MOID = 1.2066 au 
 Jupiter MOID = 2.49283 au 
 T_jup = 3.432 
[ show covariance matrix ]

Ephemeris | Orbit Diagram | Orbital Elements | Mission Design | Physical Parameters | Discovery Circumstances | Close-Approach Data ]

Physical Parameter Table
Parameter Symbol Value Units Sigma Reference Notes
absolute magnitude H 15.4   n/a MPO452330  

11325 Slavický           Discovered 1995 Sept. 17 by L. Šarounová at Ondřejov.
Klement Slavický (1910-1999) was an outstanding Czech composer, whose personal musical expression was rooted in the folk-music culture of Moravia. He was also appreciated for his life-long high moral standards. In 1985 Slavický was awarded with the Golden Medal of the United Nations for his fourth Symphonietta.
NOTE: some special characters may not display properly (any characters within {} are an attempt to place the proper accent above a character)
Reference: 19991123/MPCPages.arcLast Updated: 2010-06-11

[ show close-approach data ]
Ephemeris | Orbit Diagram | Orbital Elements | Mission Design | Physical Parameters | Discovery Circumstances | Close-Approach Data ]
ABOUT SSD CREDITS/AWARDS PRIVACY/COPYRIGHT GLOSSARY LINKS
FirstGov 2021-Mar-03 12:34 UT
(server date/time)  
NASA Home Page
Site Manager:   Ryan S. Park
Webmaster  Alan B. Chamberlin